IRIDIUM 33 DEB, 46435

Orbit data source: Space-Track

IRIDIUM 33 DEB, 46435 is space debris in LEO originally from a launch on Sun, 14 Sep 1997 UTC launched from the Tyuratam Missile And Space Complex (TTMTR). The debris from Iridium 33, an American commercial communications satellite, has been tracked extensively since its accidental collision with the defunct Russian satellite Cosmos 2251 in 2009. This event, occurring at high speed in low Earth orbit (LEO), generated thousands of pieces of space debris, significantly increasing the risk of further collisions. The Iridium 33 debris cloud has impacted space traffic management and orbital debris mitigation strategies, making it a subject of ongoing study in space situational awareness.

Loading next visibility...
Identifier
46435, 1997-051ABN
Orbit
LEO
Country
Flag of USUS
Related business
Manufacturer
Unknown
Mission
Spacecraft
Bus & Motor
Unknown
Mass
Unknown
Launch date (UTC)
1997-09-14 (29 years ago)
Launch vehicle
Unknown
Launch site
Tyuratam Missile And Space Complex (TTMTR)
Object type
Payload
Rocket body
Debris
Shape & HBR
Unknown shape, 0.1 m
Radar Cross Section
Small (<0.1 m²)

Expand to show TLE details & history
Last TLE update: 2 weeks ago

TLE from 2 weeks ago
0 IRIDIUM 33 DEB
1 46435U 97051ABN 26161.12153723  .00014751  00000-0  36949-2 0  9995
2 46435  86.2739 116.1819 0205328  47.5157 327.7811 14.39356759104922
Epoch: 2026-06-10T02:55Z
TLE epoch observation values (Epoch: 2026-06-10T02:55:00.816Z)
Latitude
13.95173°
Longitude
174.86626°
Altitude
639.788 km
Speed
7.604 km/s
True Right ascension
07h 48m 24s
True Declination
13° 52' 12"
Sunlit
Object was in daylight at epoch
Visualization orbit readout
Latitude
Unknown
Longitude
Unknown
Altitude
Unknown
Speed
Unknown
Apparent Right ascension
Unknown
Apparent Declination
Unknown
Sunlit
N/A
Visualization observer readout
Local Sidereal Time
21:36:38
Azimuth
Unknown
Elevation
Unknown
Doppler factor
Unknown
Orbital elements
Apogee altitude
904.099 km
Perigee altitude
611.066 km
Semi-major axis
7,135.719 km
Eccentricity
0.02053
Inclination
86.2739°
RAAN
116.1819°
Arg. of periapsis
47.5157°
True anomaly
326.49894°
Mean anomaly
327.7811°
Eccentric anomaly
327.14282°
Mean motion
3.6007 °/min
Orbital period
99.98 mins
BSTAR
0.0036949
Loading maneuver chart data...
Computing Atmospheric mass density...

Documentation

Showing up to 5 results
|